SCP
0 0 0 0 0 0 0 0 0 0 0 0 0 0 0 0 0 0 0 0 0 0 0 0 0 0 0 0 0 0 0 0 0 0 0 0 0 0 0 0 0 0 0
0 0 0 0 0 0 0 0 0 0 0 0 0 0 0 0 0 0 0 0 0 0 0 0 0 0 0 0 0 0 0 0 0 0 0 0 0 0 0 0 0 0 0
0 0 0 0 0 0 0 0 0 0 0 0 0 0 0 0 0 0 0 0 0 0 0 0 0 0 0 0 0 0 0 0 0 0 0 0 0 0 0 0 0 0 0
0 0 0 0 0 0 0 0 0 0 0 0 0 0 0 0 0 0 0 0 0 0 0 0 0 0 0 0 0 0 0 0 0 0 0 0 0 0 0 0 0 0 0
0 0 0 0 0 0 0 0 0 0 0 0 0 0 0 0 0 0 0 0 0 0 0 0 0 0 0 0 0 0 0 0 0 0 0 0 0 0 0 0 0 0 0
0 0 0 0 0 0 0 0 0 0 0 0 0 0 0 0 0 0 0 0 0 0 0 0 0 0 0 0 0 0 0 0 0 0 0 0 0 0 0 0 0 0 0
0 0 0 0 0 0 0 0 0 0 0 0 0 0 0 0 0 0 0 0 0 0 0 0 0 0 0 0 0 0 0 0 0 0 0 0 0 0 0 0 0 0 0
0 0 0 0 0 0 0 0 0 0 0 0 0 0 0 0 0 0 0 0 0 0 0 0 0 0 0 0 0 0 0 0 0 0 0 0 0 0 0 0 0 0 0
0 0 0 0 0 0 0 0 0 0 0 0 0 0 0 0 0 0 0 0 0 0 0 0 0 0 0 0 0 0 0 0 0 0 0 0 0 0 0 0 0 0 0
0 0 0 0 0 0 0 0 0 0 0 0 0 0 0 0 0 0 0 0 0 0 0 0 0 0 0 0 0 0 0 0 0 0 0 0 0 0 0 0 0 0 0
0 0 0 0 0 0 0 0 0 0 0 0 0 0 0 0 0 0 0 0 0 0 0 0 0 0 0 0 0 0 0 0 0 0 0 0 0 0 0 0 0 0 0
0 0 0 0 0 0 0 0 0 0 0 0 0 0 0 0 0 0 0 0 0 0 0 0 0 0 0 0 0 0 0 0 0 0 0 0 0 0 0 0 0 0 0
0 0 0 0 0 0 0 0 0 0 0 0 0 0 0 0 0 0 0 0 0 0 0 0 0 0 0 0 0 0 0 0 0 0 0 0 0 0 0 0 0 0 0
0 0 0 0 0 0 0 0 0 0 0 0 0 0 0 0 0 0 0 0 0 0 0 0 0 0 0 0 0 0 0 0 0 0 0 0 0 0 0 0 0 0 0
0 0 0 0 0 0 0 0 0 0 0 0 0 0 0 0 0 0 0 0 0 0 0 0 0 0 0 0 0 0 0 0 0 0 0 0 0 0 0 0 0 0 0
0 0 0 0 0 0 0 0 0 0 0 0 0 0 0 0 0 0 0 0 0 0 0 0 0 0 0 0 0 0 0 0 0 0 0 0 0 0 0 0 0 0 0
0 0 0 0 0 0 0 0 0 0 0 0 0 0 0 0 0 0 0 0 0 0 0 0 0 0 0 0 0 0 0 0 0 0 0 0 0 0 0 0 0 0 0
0 0 0 0 0 0 0 0 0 0 0 0 0 0 0 0 0 0 0 0 0 0 0 0 0 0 0 0 0 0 0 0 0 0 0 0 0 0 0 0 0 0 0
0 0 0 0 0 0 0 0 0 0 0 0 0 0 0 0 0 0 0 0 0 0 0 0 0 0 0 0 0 0 0 0 0 0 0 0 0 0 0 0 0 0 0
0 0 0 0 0 0 0 0 0 0 0 0 0 0 0 0 0 0 0 0 0 0 0 0 0 0 0 0 0 0 0 0 0 0 0 0 0 0 0 0 0 0 0
0 0 0 0 0 0 0 0 0 0 0 0 0 0 0 0 0 0 0 0 0 0 0 0 0 0 0 0 0 0 0 0 0 0 0 0 0 0 0 0 0 0 0
0 0 0 0 0 0 0 0 0 0 0 0 0 0 0 0 0 0 0 0 0 0 0 0 0 0 0 0 0 0 0 0 0 0 0 0 0 0 0 0 0 0 0
0 0 0 0 0 0 0 0 0 0 0 0 0 0 0 0 0 0 0 0 0 0 0 0 0 0 0 0 0 0 0 0 0 0 0 0 0 0 0 0 0 0 0
0 0 0 0 0 0 0 0 0 0 0 0 0 0 0 0 0 0 0 0 0 0 0 0 0 0 0 0 0 0 0 0 0 0 0 0 0 0 0 0 0 0 0
0 0 0 0 0 0 0 0 0 0 0 0 0 0 0 0 0 0 0 0 0 0 0 0 0 0 0 0 0 0 0 0 0 0 0 0 0 0 0 0 0 0 0
0 0 0 0 0 0 0 0 0 0 0 0 0 0 0 0 0 0 0 0 0 0 0 0 0 0 0 0 0 0 0 0 0 0 0 0 0 0 0 0 0 0 0
Wind_Speed
1 1 1 1 2 2 3 3 4 4 5 5 5 6 6 6 6 6 4 5 7 9 11 10 11 11 11 10 10 9 9 8 8 8 9 9 9 9 10 10 10 11 11
2 2 2 2 2 2 3 3 5 5 5 5 6 6 7 7 7 7 6 5 6 8 10 10 11 11 11 10 10 10 10 10 9 9 9 10 10 10 10 10 11 12 12
3 3 2 2 2 3 3 3 4 4 4 5 6 7 6 7 7 7 7 6 5 5 7 9 10 10 10 10 10 10 10 10 10 9 9 10 11 11 11 11 12 12 13
3 2 2 3 3 3 2 3 4 4 4 5 5 5 5 5 7 7 6 6 5 5 4 6 8 9 9 9 9 10 10 10 10 10 9 10 10 11 12 12 13 13 14
3 2 2 3 3 2 2 3 3 4 5 5 5 5 6 6 6 6 6 6 5 5 5 4 4 6 8 9 9 10 10 10 10 10 10 10 10 11 12 12 12 13 14
4 3 2 3 3 3 3 3 4 4 4 5 6 6 6 5 5 4 5 5 4 5 5 5 4 4 6 8 9 10 10 10 10 10 10 11 11 12 12 12 13 14 14
4 4 3 4 4 3 4 4 4 4 4 4 4 5 5 5 4 3 4 4 4 4 5 5 5 5 4 6 8 10 11 11 11 11 11 12 12 13 13 13 14 14 14
4 3 4 3 4 3 4 5 4 4 3 3 3 5 5 4 2 4 3 3 4 4 5 5 5 5 5 4 5 8 10 12 13 12 12 12 13 14 14 14 14 15 15
4 4 4 4 4 3 4 5 5 5 4 3 3 3 4 4 5 3 4 4 4 4 5 5 6 6 6 5 5 6 9 11 12 13 13 13 14 14 14 14 15 15 15
5 5 5 5 4 4 4 5 5 5 5 5 3 3 4 5 5 5 4 5 6 6 6 6 6 6 6 5 5 7 9 10 11 12 13 14 14 14 15 15 15 15 16
5 5 5 5 5 4 5 5 5 5 4 5 4 4 4 5 5 6 7 7 6 6 6 7 6 5 6 6 5 7 9 11 11 12 12 13 14 15 15 15 15 16 16
4 6 6 5 5 5 5 5 5 5 4 5 4 4 4 4 5 6 8 8 8 7 8 6 6 5 5 6 6 8 9 10 12 12 12 13 14 14 15 16 16 16 16
4 6 6 5 5 5 5 5 5 5 5 5 5 4 4 5 5 6 7 8 9 8 8 6 5 5 5 6 6 9 9 10 12 13 13 14 14 14 15 16 16 17 17
4 5 5 5 5 6 5 5 4 5 5 5 6 6 4 5 5 6 6 7 9 8 8 8 5 5 5 6 7 10 9 10 12 13 14 14 14 15 14 15 16 16 16
3 4 4 5 5 5 5 5 4 5 5 5 5 6 5 5 5 5 6 6 7 9 9 7 6 6 6 6 8 8 9 11 13 13 13 14 14 14 15 15 15 16 16
4 4 4 4 5 5 5 5 4 5 5 5 5 6 6 5 5 5 5 6 7 8 9 7 7 8 8 7 9 9 9 12 11 12 12 13 14 14 14 14 14 14 13
4 4 4 4 4 5 5 5 5 5 5 6 6 6 7 7 6 6 5 5 6 7 10 9 8 8 10 10 9 9 9 9 8 10 12 13 14 14 14 13 13 13 13
4 5 4 4 5 5 5 5 5 6 6 6 6 7 7 6 7 7 6 6 6 7 9 11 9 8 10 10 11 11 9 8 8 10 12 13 14 14 13 12 13 12 11
4 4 4 4 5 5 5 5 5 6 6 6 6 7 7 8 8 7 8 7 7 7 8 9 10 8 8 8 10 10 10 8 8 9 11 11 12 13 12 12 12 11 11
4 4 4 4 5 5 5 5 5 6 6 6 6 7 7 7 8 9 8 8 8 8 8 8 9 8 8 8 8 8 9 8 8 8 9 10 11 12 12 11 11 10 10
4 4 4 4 5 4 4 5 6 6 6 7 7 7 7 8 9 9 8 9 9 8 8 8 9 9 8 8 8 8 9 9 9 7 8 8 8 7 7 8 8 9 10
4 4 4 4 5 4 5 7 7 6 6 7 7 7 7 7 8 10 11 11 11 10 10 9 9 10 11 10 9 9 9 10 9 5 8 9 7 7 7 6 9 11 11
4 4 4 4 5 5 7 8 8 7 6 6 7 7 6 7 8 8 10 11 10 11 12 11 11 11 12 11 11 11 10 10 10 8 8 9 7 8 7 7 11 11 11
4 4 5 5 5 6 8 8 9 7 6 7 7 8 8 8 8 10 10 10 10 9 10 9 10 11 11 11 11 11 12 12 11 7 6 8 8 8 8 7 9 11 11
4 5 5 5 6 6 8 9 10 6 6 7 7 7 8 8 10 12 11 10 10 9 10 12 14 14 15 15 13 9 9 8 8 6 5 6 7 8 8 7 7 10 11
5 5 5 5 6 6 8 9 10 5 6 6 6 7 8 10 12 13 10 10 11 10 10 10 10 11 11 11 12 9 8 8 7 7 4 6 6 7 7 5 5 6 7
Wind_Direction
281 276 283 291 295 299 288 284 282 284 281 278 275 278 280 279 278 274 270 250 262 277 283 287 285 281 279 278 278 275 276 276 267 262 262 262 264 265 266 266 269 270 270
288 282 285 291 294 295 296 292 294 289 287 287 284 282 281 280 276 277 278 268 250 264 276 282 285 285 282 280 279 281 280 283 279 268 263 260 260 262 264 266 268 269 270
296 287 283 290 297 297 296 295 295 291 291 289 288 286 282 279 280 281 281 282 277 259 263 275 281 285 286 282 281 283 283 284 285 285 277 269 265 263 263 264 265 267 269
316 303 302 303 305 302 305 306 304 294 291 295 297 294 284 279 277 280 281 281 283 283 271 270 276 281 285 285 285 285 285 286 286 286 286 281 274 270 268 267 267 267 268
340 321 313 312 311 304 306 308 309 303 297 300 296 290 287 284 282 279 279 282 282 284 287 291 279 282 286 290 290 289 291 292 292 292 291 289 286 281 276 273 272 271 270
350 339 332 328 325 315 312 305 294 299 297 302 297 290 288 286 283 283 286 285 288 292 296 302 297 294 288 293 296 296 297 295 296 295 295 293 289 287 285 283 279 276 274
1 357 346 335 333 325 321 314 303 300 301 309 299 294 285 274 279 293 299 306 309 307 309 309 304 299 295 291 294 298 299 298 296 295 296 294 292 288 287 285 284 284 282
357 357 353 342 339 330 326 324 320 312 312 318 303 301 296 282 289 303 302 302 307 312 310 306 306 301 295 292 305 303 302 300 299 297 297 296 294 290 287 286 285 284 284
352 355 349 340 339 336 329 327 325 314 304 305 306 300 301 297 312 285 300 300 304 306 305 306 301 299 297 292 297 308 309 303 302 300 300 298 295 292 290 289 288 287 285
359 357 353 347 340 340 336 329 329 316 308 303 299 283 289 300 297 297 291 295 302 299 300 301 301 303 300 293 300 316 319 309 304 302 299 297 296 294 292 291 290 289 287
358 356 352 347 343 339 336 333 331 329 322 314 311 308 297 295 289 286 292 298 296 294 297 295 295 298 301 297 298 316 317 310 303 301 299 296 294 292 292 291 290 290 289
350 355 350 349 348 345 344 344 342 339 338 329 320 310 305 297 295 287 287 295 295 296 294 289 289 291 294 296 302 315 308 309 307 304 301 298 295 293 291 290 289 289 289
349 351 351 351 352 350 347 348 348 344 340 334 328 319 312 303 300 294 289 295 296 295 288 282 287 291 296 301 303 314 299 300 304 304 302 300 296 295 293 290 290 289 289
347 345 347 349 350 350 348 350 347 343 338 331 326 323 317 313 310 302 296 295 295 291 285 287 293 294 298 297 305 306 300 302 301 300 299 300 298 296 295 293 291 290 290
342 345 346 348 348 349 348 347 344 338 332 328 323 320 315 311 308 305 300 293 287 290 289 291 294 298 301 298 305 300 298 306 300 297 298 298 297 299 297 293 292 291 291
341 343 346 346 344 344 342 339 335 333 329 324 320 318 316 312 307 306 300 296 287 283 284 294 296 303 305 299 303 299 298 300 296 299 299 298 299 299 297 296 296 296 296
340 341 339 340 339 337 336 332 330 325 323 323 322 320 320 318 313 312 306 303 299 291 285 291 295 301 302 300 299 297 296 296 297 299 301 300 298 297 297 297 298 298 297
340 341 339 339 337 335 336 332 328 327 324 324 325 323 320 318 315 313 309 306 301 299 293 294 298 301 300 302 300 297 296 294 295 298 298 299 297 295 294 296 296 296 298
344 343 344 340 335 336 335 334 330 327 324 320 320 319 318 318 315 314 311 308 305 302 297 293 296 300 299 302 301 298 298 296 297 298 294 293 295 297 297 296 293 294 297
341 341 341 333 329 331 331 331 327 323 320 319 318 317 316 314 313 312 310 309 308 306 301 296 294 298 298 304 304 304 303 302 299 298 294 295 293 291 292 294 291 291 293
337 336 332 328 325 324 328 327 324 319 317 315 314 313 312 311 312 309 307 307 306 302 301 300 299 299 301 308 306 306 300 302 297 296 301 297 293 290 291 289 288 295 299
332 331 326 321 321 321 327 324 318 315 314 310 310 308 306 301 305 307 305 304 303 299 300 298 298 299 303 304 304 301 299 299 296 303 302 296 296 290 292 292 296 297 297
323 321 317 314 313 318 321 323 322 314 308 305 304 304 303 305 303 305 305 303 302 300 296 294 293 295 300 304 303 299 295 293 290 302 299 289 293 292 296 295 300 301 301
314 310 310 309 308 312 316 319 318 312 304 301 301 302 302 306 309 309 307 304 302 301 302 299 295 296 298 300 299 296 294 290 286 285 293 287 295 294 299 294 297 299 299
306 305 303 303 303 305 311 315 316 310 302 303 303 302 301 302 307 309 304 301 300 301 305 302 299 298 300 302 302 298 296 294 292 292 301 290 296 303 296 288 296 302 303
296 299 298 299 298 300 306 311 314 304 301 303 302 299 298 301 305 307 303 300 299 302 304 305 302 303 301 300 302 294 291 289 292 291 305 299 295 307 297 291 304 309 306